Location: Dillon
(41.1766°N, 107.0923°W)
Time: 20:51:19
(UTC+00:00)

BEESAT 2 - Visible Passes

Search period start: 26 June 2022 00:00
Search period end: 06 July 2022 00:00
Orbit: 485 x 508 km, 64.9° (Epoch: 26 June)

Date Brightness Start Highest point End Pass type
(mag) Time Alt. Az. Time Alt. Az. Time Alt. Az.
26 Jun ? 04:41:14 10° NW 04:45:02 53° WSW 04:46:24 34° S visible
27 Jun ? 04:19:23 10° NW 04:23:12 62° WSW 04:25:16 25° SSE visible
28 Jun ? 03:57:30 10° NW 04:01:22 71° WSW 04:04:09 18° SSE visible
29 Jun ? 03:35:38 10° NW 03:39:30 81° WSW 03:43:06 12° SSE visible
30 Jun ? 03:13:45 10° NNW 03:17:38 88° ENE 03:21:29 10° SSE visible
03 Jul ? 03:47:22 10° W 03:48:35 11° WSW 03:49:48 10° SW visible
04 Jul ? 03:24:54 10° W 03:26:42 13° WSW 03:28:29 10° SW visible
